Theta_e
352 351 351 352 355 356 357 357 354 352 352 351 352 353 354 353 354 355 357 356 355 355 356 356 357 357 355 355 355 352 350 350 349 348 349 351 348 345 343 338 343 350 353 353 351 355 359 359 359 360 360 358 357 356 355 355 354 354 355 356 356 357 357
352 350 351 353 354 357 358 357 355 354 354 353 353 354 354 354 355 357 358 358 357 357 356 356 358 357 356 355 355 354 352 349 349 348 349 349 349 350 348 343 341 346 351 353 351 355 358 358 358 359 359 358 356 356 356 356 356 355 356 356 357 357 357
353 351 351 352 355 358 360 358 355 355 354 355 354 354 355 354 356 357 359 359 359 358 357 357 357 358 356 356 355 354 353 351 350 349 347 347 348 350 350 348 344 342 347 352 352 354 357 355 356 358 359 358 357 356 356 357 357 357 358 357 357 359 358
353 352 351 352 354 358 360 358 356 355 355 355 356 355 356 355 356 358 360 361 360 360 360 358 358 358 357 356 354 354 353 351 349 349 347 345 345 349 351 351 348 344 345 350 352 353 354 354 355 357 358 357 357 357 357 358 357 357 358 358 356 358 358
352 352 351 353 355 356 358 357 356 355 355 356 356 356 357 356 356 357 360 361 361 361 361 360 358 358 358 356 355 354 352 351 350 348 347 345 344 348 352 352 351 349 347 349 351 352 352 353 355 356 356 356 358 358 359 359 359 357 359 360 357 356 356
352 353 354 355 356 356 357 356 355 355 354 355 356 357 356 357 357 358 360 362 362 362 362 361 360 359 358 357 355 354 353 351 350 349 347 347 345 346 349 351 353 352 350 350 351 351 352 353 355 356 356 357 358 359 360 360 360 358 358 360 359 358 358
353 355 355 356 356 356 356 356 355 355 356 356 356 358 357 357 358 358 360 362 363 363 363 362 361 360 359 358 356 356 355 353 352 350 349 348 347 346 347 350 353 354 353 353 351 350 353 354 354 355 356 357 359 360 360 360 360 360 359 360 360 359 360
354 356 356 354 355 356 355 355 356 355 356 355 355 358 358 358 359 359 359 362 363 364 364 363 362 361 361 359 358 356 355 354 353 351 350 349 348 348 347 348 352 354 355 355 353 350 353 355 355 355 355 357 359 360 360 360 360 360 360 359 360 360 360
353 355 355 354 353 354 354 354 355 355 356 357 356 358 359 358 358 358 359 362 363 364 364 363 363 362 361 360 360 358 356 355 354 353 352 350 350 349 349 348 350 353 354 356 354 351 351 354 356 355 356 356 358 360 360 359 359 360 361 359 360 359 358
352 353 355 354 353 354 356 354 355 356 356 357 356 358 359 359 359 358 359 362 364 364 365 364 364 363 362 361 360 359 357 356 355 354 354 352 352 351 351 349 350 352 353 355 355 352 349 352 356 356 357 357 357 359 359 359 359 359 360 360 359 359 357
352 353 355 354 352 355 356 354 357 359 358 356 356 357 359 359 360 359 359 361 363 365 365 365 364 364 364 362 362 360 359 357 356 355 355 354 353 353 352 351 351 352 354 354 355 354 350 351 356 357 357 357 357 359 359 359 359 359 359 360 359 359 358
353 353 354 354 354 355 355 355 357 360 358 356 356 357 358 359 360 360 360 360 362 364 366 366 365 365 365 364 363 362 361 359 357 357 356 355 354 354 354 353 353 353 354 354 354 354 351 351 355 356 357 357 358 358 359 359 360 359 359 359 360 359 358
355 354 355 354 354 354 355 356 358 359 359 356 355 356 356 357 358 358 360 361 361 364 365 366 367 365 365 365 364 363 361 361 359 358 357 356 355 355 355 355 355 354 355 355 354 355 352 352 353 355 356 357 357 359 360 359 359 359 358 359 359 359 359
352 353 354 357 360 361 358 355 357 359 357 355 356 355 355 357 358 358 361 361 361 363 365 366 367 366 366 366 365 364 362 362 361 358 358 357 356 356 356 356 357 356 355 356 355 354 354 354 354 355 355 356 357 359 360 359 359 358 358 358 358 359 359
346 347 350 352 358 364 364 362 361 361 358 356 355 354 354 355 358 360 361 362 362 363 365 366 367 366 367 366 365 365 363 362 361 360 359 358 357 357 358 356 357 358 356 356 355 354 354 355 354 355 356 356 357 358 359 359 358 358 359 357 358 358 359
343 344 345 346 349 353 356 359 361 364 363 360 357 358 357 356 359 361 362 363 362 363 365 367 367 366 367 366 366 365 364 362 362 361 360 360 359 358 358 358 357 358 357 356 354 354 354 356 356 356 357 357 358 358 358 359 357 357 356 357 357 357 358
341 341 342 343 344 346 348 350 353 358 362 358 352 354 357 358 359 359 359 361 362 363 365 366 367 368 367 367 367 365 365 363 362 362 361 360 360 359 359 358 357 358 357 355 354 354 354 356 356 357 357 357 359 359 358 358 357 357 356 355 355 356 358
339 339 339 341 342 344 347 347 346 350 355 356 352 352 354 356 359 359 358 357 359 362 364 366 367 368 367 367 367 366 365 364 363 362 361 360 361 359 359 359 357 357 357 356 355 354 354 355 356 357 358 358 359 359 359 358 357 357 356 355 354 354 356
336 336 337 339 340 344 347 347 346 346 348 351 353 353 353 352 356 358 359 358 356 358 363 365 367 368 368 367 367 367 365 364 363 362 362 361 361 360 360 359 358 357 358 357 357 356 355 355 357 358 358 358 359 359 359 359 358 358 357 357 356 354 355
333 335 335 336 337 340 342 343 344 344 344 347 350 352 354 354 354 356 357 358 356 355 361 365 366 367 368 367 367 367 366 365 364 364 363 362 362 361 360 360 359 358 358 359 359 358 357 356 355 358 358 358 359 360 361 360 359 358 359 358 357 356 356
332 333 334 334 336 338 338 340 342 342 343 346 348 351 355 357 357 355 355 357 358 357 361 363 366 367 368 367 367 367 366 366 366 364 363 363 362 362 361 360 361 360 358 360 360 359 359 357 356 357 359 359 359 359 361 361 360 359 360 360 360 359 358
330 331 332 333 334 336 337 338 339 340 342 344 346 349 352 356 359 360 358 355 356 359 362 361 364 367 368 367 367 367 367 366 366 365 364 364 363 363 362 361 360 361 359 359 359 360 360 359 357 357 358 360 360 359 360 361 361 361 361 360 361 361 360
328 329 330 331 332 333 334 336 337 339 342 344 347 349 352 355 360 361 362 360 357 358 362 362 363 365 367 367 368 367 367 367 366 366 365 365 364 364 363 362 361 360 360 359 359 360 360 360 359 358 357 358 359 360 360 361 361 361 361 361 362 362 362
326 328 328 329 330 331 331 333 335 338 341 344 346 348 351 355 359 361 363 362 360 359 360 363 363 364 366 369 368 368 368 367 367 367 366 365 365 364 363 363 361 360 360 360 359 360 360 360 360 358 357 358 359 360 360 360 361 361 361 361 362 361 363
325 326 327 327 328 329 330 332 335 337 339 341 342 345 347 350 355 360 362 363 362 360 359 360 362 363 365 367 368 368 369 368 367 367 367 367 365 364 364 363 362 361 360 360 359 358 359 360 360 360 359 358 358 359 360 361 361 361 362 362 362 362 362
324 324 324 325 325 327 329 331 333 335 336 338 340 343 345 347 351 356 360 362 364 363 360 360 360 362 364 366 368 368 368 369 368 367 367 367 366 365 364 363 363 361 361 360 360 359 359 360 360 360 360 359 358 357 357 359 360 361 362 362 363 362 362
323 322 323 323 324 326 327 329 331 333 334 336 338 340 343 346 349 353 357 361 364 364 362 361 359 360 362 365 368 369 369 369 370 368 368 367 367 366 365 365 364 362 361 360 360 359 359 359 361 361 361 360 360 359 358 358 358 359 360 361 361 363 362
322 320 321 322 323 325 326 327 329 331 333 334 336 338 340 343 346 350 354 359 362 364 365 362 360 359 361 364 367 369 369 370 369 370 369 369 368 367 366 365 364 364 362 361 360 360 360 360 361 362 361 361 361 360 360 359 358 358 359 360 361 361 362
321 321 321 322 322 324 325 326 328 330 332 333 334 336 338 341 344 348 352 358 362 364 365 365 360 359 361 363 366 368 370 370 370 370 370 370 369 369 367 366 365 364 363 362 361 360 359 360 362 363 362 363 363 361 361 361 360 360 359 359 359 360 361
322 322 323 322 322 323 325 326 327 329 331 332 333 334 337 340 344 347 351 357 361 364 366 366 362 360 361 364 366 368 368 370 371 370 371 371 370 369 369 367 366 365 364 363 361 360 359 360 362 364 364 363 364 363 362 362 362 361 360 360 360 360 360
323 324 324 322 321 323 325 326 328 329 330 331 332 334 337 341 345 350 354 359 363 367 368 366 364 363 362 364 366 368 368 370 370 371 371 371 371 371 370 369 367 367 365 363 362 361 359 359 361 363 364 365 365 364 364 363 363 363 362 362 362 360 360
324 325 325 323 321 322 325 326 328 329 330 330 331 334 338 340 344 350 357 364 367 368 368 367 366 363 364 366 367 368 368 370 370 372 372 371 371 372 370 370 369 368 367 365 363 361 360 359 360 361 363 363 364 364 364 363 363 363 362 362 362 362 361
324 325 325 323 322 323 325 327 328 329 330 330 332 334 337 339 341 346 354 364 368 368 368 369 367 365 365 366 367 368 369 370 370 372 372 371 371 372 371 370 370 369 369 367 365 363 361 359 359 359 361 362 362 363 363 364 363 363 363 363 363 363 362
324 325 326 323 321 323 326 327 327 328 329 331 333 334 336 338 339 343 351 362 368 370 370 368 368 367 366 366 368 368 368 370 371 371 372 372 371 372 372 371 371 370 370 368 366 364 363 361 360 359 358 359 359 361 362 362 363 364 363 362 362 362 362
323 326 325 322 320 323 326 326 325 327 329 331 332 334 335 335 337 341 347 354 361 368 372 370 367 368 368 367 368 368 368 369 369 370 371 372 372 371 372 372 371 371 370 369 368 366 364 362 361 360 359 359 358 359 360 361 362 363 362 362 361 361 361
322 325 325 321 321 323 325 324 323 326 329 330 331 332 333 334 335 338 342 346 351 360 370 372 369 368 369 368 369 369 368 369 369 370 371 371 371 371 371 372 371 372 371 370 368 368 366 364 362 361 360 359 358 357 357 358 359 361 361 360 360 360 360
322 325 324 321 322 325 325 323 322 325 328 330 330 330 331 333 333 334 337 341 344 352 364 372 370 368 368 369 369 368 368 368 368 369 369 370 371 370 371 370 370 370 371 370 369 368 367 366 363 362 361 360 359 358 358 357 357 358 360 360 360 360 360
324 326 323 322 323 325 324 322 321 324 328 330 328 328 330 331 331 332 334 336 339 346 357 367 372 371 370 370 369 369 368 369 369 369 369 369 370 370 370 368 366 366 366 368 369 369 369 366 364 363 362 361 361 359 359 358 358 359 359 360 360 361 361
Wind_Speed
18 17 16 15 14 15 15 15 16 20 26 31 32 33 35 36 37 37 38 41 41 40 40 39 38 40 41 41 41 40 40 38 37 36 35 33 32 31 30 30 27 25 26 26 23 23 24 22 21 22 20 19 20 17 16 15 14 15 13 12 13 12 11
18 16 16 15 15 15 16 18 19 21 24 28 31 32 34 36 37 37 37 39 41 40 40 39 39 40 41 41 41 41 41 40 38 37 36 34 32 32 31 31 31 29 27 26 24 24 24 22 22 24 22 20 21 20 18 17 16 16 15 14 14 14 12
18 18 17 17 16 16 17 17 20 23 24 27 30 32 33 36 37 37 38 39 40 39 39 39 39 39 40 41 40 41 41 41 40 39 38 37 34 32 32 31 32 31 29 27 26 26 25 23 23 25 24 21 22 22 21 20 19 18 17 16 16 16 14
21 21 20 19 18 17 17 16 19 24 27 29 32 33 33 34 36 37 38 40 41 40 40 40 39 39 39 39 39 40 41 41 41 41 40 39 37 34 32 32 32 32 31 29 28 28 27 25 26 27 25 23 22 22 22 22 21 21 19 18 18 18 16
21 20 17 17 16 15 15 16 19 24 28 30 32 33 33 34 36 37 37 41 42 42 42 41 40 39 39 39 38 39 41 42 42 42 41 40 38 36 34 34 33 33 33 32 30 28 28 28 28 28 27 25 23 23 23 23 22 22 21 18 18 19 18
18 17 16 16 15 15 15 16 20 26 29 31 33 33 34 34 35 37 37 39 42 42 41 41 40 39 39 40 40 38 39 42 42 42 41 40 39 38 36 35 35 34 33 33 31 29 29 30 30 29 29 27 26 25 24 24 23 22 22 20 18 18 18
15 14 15 15 15 15 16 16 20 27 30 32 33 32 34 34 34 35 37 38 40 41 41 41 41 40 40 40 40 39 39 40 41 41 41 40 39 40 39 37 36 35 34 34 33 32 31 31 32 31 30 29 28 27 26 26 24 23 23 23 21 20 18
15 14 15 15 16 16 16 15 18 24 27 29 30 30 32 34 33 34 35 36 39 40 41 41 41 40 40 39 39 39 39 39 40 40 40 40 39 40 40 38 37 36 34 34 34 34 33 33 33 32 32 31 29 29 29 28 26 25 24 24 23 22 20
17 17 17 17 17 16 15 15 18 23 25 27 29 29 32 33 33 33 34 36 37 38 40 41 41 40 40 39 40 40 39 39 39 39 39 39 39 39 39 39 38 36 35 35 35 35 35 34 34 34 33 33 31 30 30 29 28 28 26 26 25 24 23
20 19 19 19 17 15 15 15 17 18 19 24 27 29 31 33 33 33 33 35 37 38 39 39 39 39 39 40 40 39 39 39 39 39 39 39 39 38 39 38 38 37 36 35 35 36 36 34 34 35 35 34 33 32 31 31 30 30 29 28 27 26 25
16 17 17 20 18 16 17 16 14 13 16 21 25 27 30 32 32 33 33 35 36 36 38 38 38 38 38 39 39 39 39 40 40 40 40 39 38 38 38 37 37 37 37 36 35 36 37 35 34 36 35 35 35 34 33 33 32 31 31 30 29 27 27
10 15 15 19 20 17 17 16 15 15 17 22 25 26 28 30 31 31 31 33 34 35 37 37 37 37 37 38 39 39 40 40 40 40 40 40 39 38 37 37 36 37 37 37 36 36 37 37 36 36 36 35 35 35 35 35 34 33 32 31 30 29 28
5 7 9 13 17 19 18 17 17 17 17 22 26 26 26 28 30 31 31 33 34 34 36 37 37 36 36 37 38 38 39 40 40 40 40 40 39 38 37 37 37 37 37 38 37 36 37 38 37 37 37 36 36 36 36 35 35 34 34 32 31 30 29
19 14 11 8 4 9 14 15 17 18 17 21 25 26 25 27 29 31 32 33 35 35 35 36 37 37 36 36 37 38 38 40 40 40 40 40 40 38 37 37 37 37 37 38 38 37 37 39 39 38 38 37 37 36 36 36 35 34 35 34 32 31 31
19 18 19 21 19 13 7 3 4 8 10 14 20 24 26 27 30 32 32 31 33 34 35 36 37 36 36 35 36 38 38 38 39 39 39 39 39 39 38 38 37 37 38 38 39 37 37 38 39 39 38 38 37 37 36 36 36 36 35 35 34 33 32
17 17 18 18 18 18 16 14 10 7 6 5 4 3 8 10 13 19 25 30 33 32 32 35 37 36 35 35 35 36 37 37 38 38 38 39 40 40 39 39 38 37 38 39 39 38 36 36 38 39 38 38 37 37 36 36 37 38 38 37 36 35 33
16 16 17 17 16 16 16 15 14 12 10 9 13 14 9 6 4 1 6 13 24 32 32 32 35 36 35 35 35 35 36 37 38 38 39 39 40 40 39 38 38 38 38 39 40 39 36 35 37 38 38 38 38 38 37 37 37 39 40 39 39 37 35
16 16 16 15 15 16 16 16 16 15 13 10 10 12 9 3 7 8 5 13 19 24 30 30 32 36 35 34 36 36 36 37 38 39 40 39 39 40 39 38 38 37 38 39 40 40 38 36 36 38 38 37 37 38 39 39 38 39 40 41 40 39 37
16 15 15 15 15 14 13 12 14 15 17 17 12 9 7 8 6 13 18 19 22 24 26 30 31 35 36 35 37 38 37 38 38 39 40 40 39 40 39 39 38 38 37 39 40 40 40 38 36 37 38 37 37 38 39 39 40 40 39 40 41 40 39
16 16 15 14 14 13 10 8 10 14 18 20 18 13 8 14 17 17 20 23 23 29 30 29 30 33 36 36 37 39 39 39 39 39 40 40 40 40 39 39 39 38 37 37 39 40 40 39 36 36 38 39 38 37 38 38 40 41 40 39 40 40 40
15 16 15 15 14 14 12 11 13 16 19 21 23 20 16 12 13 17 20 23 28 36 35 30 29 32 35 36 37 39 40 40 40 39 39 40 40 39 40 40 39 38 36 35 37 40 41 41 39 36 37 39 39 37 37 38 39 40 40 39 38 39 39
14 15 14 14 14 13 15 18 19 20 21 22 24 23 21 20 18 14 11 13 24 34 34 30 28 31 35 36 37 39 41 41 40 40 39 39 39 39 40 40 39 39 37 35 36 38 40 40 39 37 36 38 39 38 37 37 38 39 39 38 37 37 38
14 15 14 16 18 18 20 23 24 24 24 23 23 24 24 23 24 23 20 16 17 22 27 28 27 29 33 36 37 39 41 41 40 40 39 39 39 39 40 41 40 39 38 35 34 36 38 39 39 39 38 36 37 38 38 37 37 38 39 38 37 37 38
14 16 17 19 22 23 24 26 25 25 26 26 24 24 25 25 25 26 25 22 21 19 19 25 27 28 31 36 38 39 41 41 40 39 39 39 40 39 39 40 40 40 39 37 35 35 37 39 38 38 39 38 36 36 37 37 38 38 38 37 38 38 38
14 18 20 21 22 23 25 26 26 24 24 25 26 27 28 28 26 26 25 24 23 21 19 22 28 30 30 32 36 38 39 40 41 40 40 39 39 39 38 39 40 40 40 39 36 34 35 37 37 37 38 39 38 36 35 35 36 38 38 37 37 38 39
13 16 19 21 22 23 23 24 24 24 23 23 26 29 29 28 26 25 26 26 24 22 23 24 28 32 31 30 33 36 38 39 41 41 40 40 39 38 37 37 37 38 39 39 37 35 33 35 37 36 36 38 38 37 36 34 33 35 36 37 38 39 40
15 17 19 21 22 24 24 23 22 22 22 23 26 28 28 27 26 26 27 27 25 25 28 30 29 30 31 31 32 36 38 38 40 41 40 39 38 36 36 36 36 37 38 38 37 35 33 33 36 36 35 36 36 37 37 37 35 34 33 34 36 38 41
15 17 20 21 23 24 24 23 23 23 23 25 26 27 28 27 27 27 27 26 27 29 32 33 30 28 31 33 33 35 37 37 38 39 38 37 37 36 36 36 36 36 37 37 37 36 34 32 33 34 34 35 35 35 35 36 38 38 36 35 34 35 39
11 15 19 22 24 26 25 23 22 23 25 27 28 28 29 27 27 28 27 26 31 34 34 32 30 28 31 34 35 35 36 37 37 37 36 36 37 37 36 36 36 36 36 37 36 36 34 32 31 32 32 32 33 34 34 34 37 39 40 39 37 36 37
10 14 18 20 22 25 26 25 25 26 28 29 30 31 30 27 27 28 28 30 36 37 35 33 31 29 31 35 36 37 37 37 37 38 37 36 37 37 35 36 36 35 36 37 36 35 34 32 31 30 30 30 31 33 34 34 35 38 40 41 41 40 39
11 13 15 19 22 24 26 25 26 28 30 31 33 33 31 28 27 28 31 34 37 36 35 34 31 29 32 35 37 37 37 37 37 38 38 37 37 37 36 36 35 35 35 36 36 34 33 32 31 30 29 30 30 31 33 35 36 38 40 41 42 42 41
12 13 15 18 22 25 26 26 27 28 30 33 35 34 31 30 29 29 32 35 36 36 36 33 30 30 33 35 36 37 37 36 36 37 38 38 38 38 37 36 35 35 34 34 34 34 33 33 32 30 29 29 30 32 34 35 36 38 40 41 42 43 42
12 15 15 16 20 23 22 21 23 26 28 31 34 33 32 32 32 33 34 35 37 38 35 31 30 30 32 34 35 36 36 36 36 36 36 38 37 36 36 37 36 35 34 34 34 34 33 33 32 31 30 29 29 31 34 35 35 37 39 41 42 43 43
11 15 17 19 22 22 20 18 21 24 26 28 30 31 31 33 35 36 36 35 36 36 32 30 29 30 33 34 34 35 36 37 38 37 35 36 36 34 34 35 36 35 36 38 37 36 34 34 34 34 33 32 30 29 31 32 35 37 40 42 42 42 43
12 13 15 20 24 24 22 21 23 24 25 27 30 31 32 34 35 35 35 34 35 35 29 29 30 30 33 34 33 34 36 36 37 36 34 33 35 35 34 36 36 36 36 38 39 39 38 36 36 38 38 36 34 32 30 30 34 38 42 42 41 40 42
13 12 14 19 22 23 24 25 26 26 24 27 32 33 31 32 34 35 35 35 35 35 28 25 30 30 30 32 32 33 35 35 35 35 34 32 32 32 32 33 36 37 35 35 38 41 41 40 39 40 40 39 39 40 38 38 38 39 40 40 39 39 40
12 10 14 19 20 20 23 27 29 29 27 28 33 33 30 31 34 36 37 37 35 35 31 22 25 28 28 30 33 34 34 32 31 31 31 30 31 31 29 28 30 33 34 34 35 39 41 41 40 39 39 39 39 41 43 43 40 37 38 39 39 39 38
10 9 13 17 18 18 22 26 28 29 29 29 32 33 32 32 34 34 37 40 38 34 32 25 20 25 27 27 29 31 31 31 30 30 30 28 28 27 26 25 24 26 28 31 34 37 40 41 39 38 39 39 39 39 40 40 37 35 36 37 37 37 37
Wind_Direction
174 175 174 176 178 181 182 182 179 175 175 178 179 178 178 179 180 180 181 183 186 188 189 191 190 190 190 190 191 191 191 191 191 191 190 192 194 194 195 197 194 189 187 189 191 190 193 197 195 199 203 195 191 194 194 196 197 191 191 196 198 198 193
175 175 174 175 177 180 181 182 181 176 173 177 179 179 180 181 181 181 181 183 186 189 191 192 193 193 193 192 192 192 193 193 193 193 192 193 195 196 196 197 198 197 196 198 198 195 194 198 197 199 204 200 193 193 195 196 196 192 192 193 195 198 197
175 175 175 176 177 177 178 178 180 178 175 176 179 181 183 183 183 182 181 182 185 188 191 194 195 196 195 195 194 194 195 194 194 195 195 195 196 197 198 199 200 200 201 202 201 198 197 198 200 201 204 203 196 194 196 197 196 194 195 196 194 194 196
175 177 176 176 175 173 174 176 179 180 180 180 183 185 185 184 183 183 182 183 185 188 191 194 197 198 198 197 197 197 197 197 197 197 198 198 197 198 198 199 200 201 202 204 203 202 201 200 201 203 204 203 200 198 198 199 199 198 198 200 199 195 195
176 176 174 173 173 171 173 177 180 181 182 184 186 188 187 184 183 184 184 184 186 189 192 194 196 198 200 201 200 200 200 199 200 199 199 200 199 198 198 199 200 201 201 203 204 205 204 201 202 204 203 203 202 199 200 201 204 202 199 202 203 199 199
175 172 171 172 172 172 175 177 181 182 183 184 186 188 188 186 184 184 185 185 187 189 191 193 196 198 200 202 203 203 202 202 201 201 200 200 199 199 199 200 200 200 201 201 202 205 204 201 201 202 202 202 201 199 201 203 204 202 198 201 206 201 200
170 168 167 170 171 175 177 177 181 183 183 185 186 187 187 187 185 185 185 186 186 188 190 192 195 198 200 202 204 205 205 204 202 202 201 200 200 200 201 201 201 201 201 200 201 203 204 202 201 202 202 201 201 200 201 202 203 203 200 200 205 202 202
166 166 169 174 175 178 179 177 180 182 182 184 185 185 186 187 187 186 186 186 186 187 190 192 195 197 200 202 204 206 207 206 204 203 202 201 201 202 202 202 202 202 201 201 201 202 203 203 201 202 202 201 201 202 202 202 202 203 203 203 205 204 202
170 170 174 178 177 178 180 180 180 180 180 182 185 186 186 188 190 189 187 186 187 188 190 192 194 197 199 201 204 206 207 207 206 204 203 202 202 203 203 203 203 203 201 202 202 202 203 205 203 202 202 202 202 203 204 205 203 203 205 206 207 206 203
172 172 177 178 176 175 176 179 180 179 179 181 185 186 186 188 190 191 190 187 188 190 191 192 194 196 199 201 204 206 207 207 206 205 204 203 203 203 204 204 204 203 202 202 202 202 203 205 204 202 202 202 203 205 206 207 206 204 206 207 209 210 206
179 172 174 177 178 175 174 176 175 175 179 183 186 188 188 189 189 191 192 190 188 189 190 192 194 196 199 201 203 205 206 206 206 205 204 203 203 204 204 204 204 203 203 202 202 202 203 204 203 201 201 202 203 205 206 208 207 205 205 207 209 212 211
193 179 175 177 178 175 174 175 175 176 180 183 187 190 189 188 189 191 194 193 190 188 188 190 193 195 198 200 202 204 205 205 205 204 204 204 204 204 204 204 204 203 203 202 201 202 202 203 203 202 203 204 205 206 207 208 209 207 206 207 209 212 214
62 153 177 184 180 177 173 173 177 179 180 182 187 189 188 187 189 192 195 194 192 189 188 189 192 195 197 198 200 202 203 204 204 204 204 204 204 204 204 204 203 203 204 203 202 201 201 202 203 203 205 206 206 207 208 209 210 210 208 207 209 211 214
41 44 33 33 88 162 173 176 180 182 180 181 184 185 186 188 191 195 197 195 192 190 189 189 192 194 196 197 198 200 203 204 204 204 204 203 204 203 203 204 203 203 204 203 202 202 201 201 203 204 206 207 208 208 209 209 210 211 210 209 209 211 213
39 36 33 33 37 45 57 78 170 181 181 182 185 186 188 191 195 197 197 195 192 191 190 189 190 194 195 196 198 199 202 203 202 203 204 203 203 203 203 203 203 203 204 204 204 204 203 202 203 203 205 207 208 209 209 210 210 211 211 210 210 212 214
35 32 34 35 36 38 36 28 27 38 46 49 58 117 164 177 195 201 199 195 192 192 192 189 189 192 195 196 198 199 200 201 201 201 202 203 202 202 203 202 202 203 203 203 204 204 204 203 203 203 204 205 207 208 209 211 213 214 214 213 213 213 214
28 28 29 29 31 33 30 21 20 27 34 43 43 37 42 79 98 243 254 226 204 194 192 191 189 191 195 196 196 198 198 198 199 200 201 203 202 202 203 202 201 202 202 202 203 204 205 204 203 203 205 206 207 207 208 211 214 216 216 217 216 215 214
21 23 22 22 26 28 23 13 8 10 10 19 50 46 19 27 130 149 233 275 256 217 194 191 192 191 194 196 194 195 197 197 198 199 200 202 202 202 203 203 202 202 201 201 201 202 204 205 204 203 205 206 207 208 209 211 214 217 218 218 219 218 217
16 16 15 18 22 23 19 10 360 354 351 353 15 38 350 289 216 179 193 222 255 248 211 194 193 193 193 194 193 194 196 197 197 199 200 201 202 202 203 203 203 203 201 200 200 201 202 205 205 203 204 206 207 208 210 212 215 217 219 219 220 220 219
12 8 7 10 15 14 9 9 359 347 344 346 351 1 323 256 230 214 209 209 231 249 231 202 194 194 193 193 193 193 195 196 197 199 200 201 202 202 203 203 204 204 203 201 200 200 201 203 205 204 203 205 207 208 211 213 216 218 219 221 222 222 221
9 4 2 0 2 2 355 355 359 353 347 343 340 342 336 301 255 232 223 211 218 234 231 209 196 195 193 194 193 192 193 195 196 198 199 200 201 201 203 204 204 204 204 202 201 200 201 203 205 205 204 204 206 208 210 214 217 219 220 222 223 223 222
4 359 358 355 352 354 352 350 351 347 340 338 335 330 327 324 315 298 272 237 226 227 222 210 201 197 193 195 194 192 193 195 195 197 198 199 200 201 202 203 205 205 204 203 202 202 202 202 204 206 205 204 205 207 209 213 217 219 221 222 223 223 222
2 355 353 351 348 349 350 346 342 339 334 333 332 327 321 320 320 316 310 299 272 242 219 207 206 201 195 195 195 193 194 195 195 196 198 199 200 201 202 202 204 204 204 204 203 202 202 202 204 206 206 205 205 207 209 211 215 218 221 222 222 222 221
2 355 350 350 348 347 346 342 338 338 337 333 331 327 324 323 320 314 305 298 292 277 239 214 210 208 201 197 196 195 194 195 196 196 197 199 201 202 202 202 203 204 204 204 203 202 202 203 203 205 207 207 207 207 208 211 214 217 219 221 221 221 220
360 355 350 349 348 345 341 338 337 338 338 335 331 328 325 323 318 312 304 293 286 282 262 231 218 214 210 202 198 197 196 196 197 197 198 200 202 203 203 203 203 203 204 205 205 204 203 202 203 204 207 209 210 210 209 209 212 216 218 219 220 219 219
357 351 348 347 347 343 339 337 337 337 336 332 328 325 323 320 316 310 304 298 289 278 269 253 233 222 216 208 201 199 198 198 197 198 199 201 202 203 204 205 204 203 203 205 206 206 204 202 203 204 206 208 211 212 212 212 212 214 217 218 219 219 218
355 350 348 345 345 345 342 339 335 332 330 329 328 325 320 318 314 306 302 301 295 282 273 267 251 231 218 209 203 200 200 199 199 199 200 201 202 202 204 205 205 204 204 205 206 206 205 202 202 204 206 207 209 212 214 216 216 217 217 217 218 219 217
352 351 349 345 346 348 345 338 333 331 329 328 327 324 319 315 308 300 296 294 290 284 278 272 260 239 219 208 202 200 200 200 200 199 199 200 200 201 203 205 206 206 205 205 206 206 206 204 201 201 204 206 208 211 213 215 218 220 221 220 219 219 217
353 351 347 343 344 345 344 339 333 330 329 329 327 323 318 312 302 296 293 287 282 283 282 275 263 243 221 208 202 200 199 199 200 198 198 199 199 200 202 203 204 206 206 206 207 207 207 205 201 199 201 203 206 209 212 214 216 219 221 222 223 222 220
351 349 345 342 340 341 342 341 335 330 328 329 328 324 318 310 299 292 288 284 282 282 282 277 265 244 222 208 201 199 198 198 198 198 198 198 198 200 202 202 203 205 206 206 207 207 207 206 202 198 198 200 203 207 210 212 215 218 221 222 223 224 223
341 340 340 341 340 341 341 340 334 330 330 330 329 326 321 315 305 292 285 285 285 282 279 274 262 239 219 207 201 198 196 196 196 197 197 198 198 199 200 201 202 204 206 205 205 206 207 206 204 200 197 199 201 204 208 210 213 217 220 222 223 223 224
332 335 338 342 343 341 341 341 338 332 329 329 330 328 325 321 313 300 291 290 290 285 278 268 252 231 215 206 201 197 194 193 194 196 197 197 199 200 201 200 201 204 205 205 205 206 207 205 204 202 199 199 200 202 205 208 210 214 218 220 221 222 224
329 332 335 339 341 337 336 341 340 332 327 327 328 327 325 322 316 309 302 296 293 289 277 259 240 224 212 205 200 195 192 192 193 194 196 197 198 201 201 201 203 204 205 205 204 205 206 205 205 203 201 200 200 201 203 205 207 211 215 217 218 220 221
329 329 330 336 339 338 336 339 340 332 325 324 325 326 325 322 317 313 309 305 303 297 275 244 230 222 211 204 199 194 192 193 193 193 195 196 198 200 201 201 203 205 206 206 205 204 204 203 203 205 204 202 200 199 200 203 205 208 211 214 216 218 219
327 325 331 335 338 338 336 338 342 336 325 323 328 329 326 323 319 316 314 314 315 308 278 238 224 220 211 203 198 195 194 194 194 193 194 196 198 201 203 203 204 207 210 210 208 206 205 204 204 205 205 204 203 201 200 203 206 208 211 214 216 217 218
323 327 335 336 337 337 335 337 343 339 328 329 334 330 323 321 321 321 321 318 318 317 297 249 220 215 210 203 199 197 195 194 193 193 194 196 198 202 205 206 206 209 211 212 212 212 210 208 208 208 205 205 207 207 207 209 210 211 212 214 216 218 220
323 333 338 335 335 336 333 336 343 342 334 333 332 327 323 324 326 327 326 321 317 318 312 275 225 210 208 205 201 199 196 194 192 192 194 197 198 200 202 203 204 208 211 211 212 214 214 214 213 213 210 208 209 211 213 215 215 214 214 215 216 219 220
325 334 335 332 334 337 335 335 339 340 334 327 327 328 329 330 329 327 326 325 322 318 314 300 255 220 211 208 205 201 196 193 191 192 195 198 200 201 199 196 196 202 208 211 211 212 213 215 216 215 215 214 213 213 215 216 216 217 217 217 218 219 221